Location: Casilda
(33.0440°S, 61.1680°W)
Time: 15:47:10

ISS - Pass Details

Date: 17 March 2018
Orbit: 403 x 406 km, 51.6° (Epoch: 21 March)

Event Time Altitude Azimuth Distance (km) Brightness Sun altitude
Rises 19:43:46 0° 242° (WSW) 2,346 1.5 -5.9°
Reaches altitude 10° 19:46:14 10° 260° (W) 1,478 0.9 -6.4°
Maximum altitude 19:48:41 19° 308° (NW) 1,034 -1.1 -6.9°
Drops below altitude 10° 19:51:08 10° 356° (N) 1,463 -1.0 -7.4°
Sets 19:53:34 0° 14° (NNE) 2,315 -0.2 -7.9°
